Year,Month,Day,Hour,Minute,Value (Times are PST for barometer in hPa)
2022,06,05,00,00,997.34
2022,06,05,00,01,997.33
2022,06,05,00,02,997.33
2022,06,05,00,03,997.33
2022,06,05,00,04,997.33
2022,06,05,00,05,997.33
2022,06,05,00,06,997.33
2022,06,05,00,07,997.33
2022,06,05,00,08,997.33
2022,06,05,00,09,997.33
2022,06,05,00,10,997.33
2022,06,05,00,11,997.33
2022,06,05,00,12,997.33
2022,06,05,00,13,997.33
2022,06,05,00,14,997.33
2022,06,05,00,15,997.22
2022,06,05,00,16,997.22
2022,06,05,00,17,997.22
2022,06,05,00,18,997.22
2022,06,05,00,19,997.22
2022,06,05,00,20,997.22
2022,06,05,00,21,997.22
2022,06,05,00,22,997.22
2022,06,05,00,23,997.22
2022,06,05,00,24,997.22
2022,06,05,00,25,997.22
2022,06,05,00,26,997.22
2022,06,05,00,27,997.22
2022,06,05,00,28,997.22
2022,06,05,00,29,997.22
2022,06,05,00,30,996.90
2022,06,05,00,31,996.89
2022,06,05,00,32,996.89
2022,06,05,00,33,996.89
2022,06,05,00,34,996.89
2022,06,05,00,35,996.89
2022,06,05,00,36,996.89
2022,06,05,00,37,996.89
2022,06,05,00,38,996.89
2022,06,05,00,39,996.89
2022,06,05,00,40,996.89
2022,06,05,00,41,996.89
2022,06,05,00,42,996.89
2022,06,05,00,43,996.89
2022,06,05,00,44,996.89
2022,06,05,00,45,996.78
2022,06,05,00,46,996.78
2022,06,05,00,47,996.78
2022,06,05,00,48,996.78
2022,06,05,00,49,996.78
2022,06,05,00,50,996.78
2022,06,05,00,51,996.78
2022,06,05,00,52,996.78
2022,06,05,00,53,996.78
2022,06,05,00,54,996.78
2022,06,05,00,55,996.78
2022,06,05,00,56,996.78
2022,06,05,00,57,996.78
2022,06,05,00,58,996.78
2022,06,05,00,59,996.78
2022,06,05,01,00,996.72
2022,06,05,01,01,996.72
2022,06,05,01,02,996.72
2022,06,05,01,03,996.72
2022,06,05,01,04,996.72
2022,06,05,01,05,996.72
2022,06,05,01,06,996.72
2022,06,05,01,07,996.72
2022,06,05,01,08,996.72
2022,06,05,01,09,996.72
2022,06,05,01,10,996.72
2022,06,05,01,11,996.72
2022,06,05,01,12,996.72
2022,06,05,01,13,996.72
2022,06,05,01,14,996.72
2022,06,05,01,15,996.68
2022,06,05,01,16,996.68
2022,06,05,01,17,996.68
2022,06,05,01,18,996.68
2022,06,05,01,19,996.68
2022,06,05,01,20,996.68
2022,06,05,01,21,996.68
2022,06,05,01,22,996.68
2022,06,05,01,23,996.68
2022,06,05,01,24,996.68
2022,06,05,01,25,996.68
2022,06,05,01,26,996.68
2022,06,05,01,27,996.68
2022,06,05,01,28,996.68
2022,06,05,01,29,996.68
2022,06,05,01,30,996.30
2022,06,05,01,31,996.28
2022,06,05,01,32,996.28
2022,06,05,01,33,996.28
2022,06,05,01,34,996.28
2022,06,05,01,35,996.28
2022,06,05,01,36,996.28
2022,06,05,01,37,996.28
2022,06,05,01,38,996.28
2022,06,05,01,39,996.28
2022,06,05,01,40,996.28
2022,06,05,01,41,996.28
2022,06,05,01,42,996.28
2022,06,05,01,43,996.28
2022,06,05,01,44,996.28
2022,06,05,01,45,996.28
2022,06,05,01,46,996.28
2022,06,05,01,47,996.28
2022,06,05,01,48,996.28
2022,06,05,01,49,996.28
2022,06,05,01,50,996.28
2022,06,05,01,51,996.28
2022,06,05,01,52,996.28
2022,06,05,01,53,996.28
2022,06,05,01,54,996.28
2022,06,05,01,55,996.28
2022,06,05,01,56,996.28
2022,06,05,01,57,996.28
2022,06,05,01,58,996.28
2022,06,05,01,59,996.28
2022,06,05,02,00,996.24
2022,06,05,02,01,996.24
2022,06,05,02,02,996.24
2022,06,05,02,03,996.24
2022,06,05,02,04,996.24
2022,06,05,02,05,996.24
2022,06,05,02,06,996.24
2022,06,05,02,07,996.24
2022,06,05,02,08,996.24
2022,06,05,02,09,996.24
2022,06,05,02,10,996.24
2022,06,05,02,11,996.24
2022,06,05,02,12,996.24
2022,06,05,02,13,996.24
2022,06,05,02,14,996.24
2022,06,05,02,15,996.40
2022,06,05,02,16,996.41
2022,06,05,02,17,996.41
2022,06,05,02,18,996.41
2022,06,05,02,19,996.41
2022,06,05,02,20,996.41
2022,06,05,02,21,996.41
2022,06,05,02,22,996.41
2022,06,05,02,23,996.41
2022,06,05,02,24,996.41
2022,06,05,02,25,996.41
2022,06,05,02,26,996.41
2022,06,05,02,27,996.41
2022,06,05,02,28,996.41
2022,06,05,02,29,996.41
2022,06,05,02,30,996.71
2022,06,05,02,31,996.72
2022,06,05,02,32,996.72
2022,06,05,02,33,996.72
2022,06,05,02,34,996.72
2022,06,05,02,35,996.72
2022,06,05,02,36,996.72
2022,06,05,02,37,996.72
2022,06,05,02,38,996.72
2022,06,05,02,39,996.72
2022,06,05,02,40,996.72
2022,06,05,02,41,996.72
2022,06,05,02,42,996.72
2022,06,05,02,43,996.72
2022,06,05,02,44,996.72
2022,06,05,02,45,996.55
2022,06,05,02,46,996.55
2022,06,05,02,47,996.55
2022,06,05,02,48,996.55
2022,06,05,02,49,996.55
2022,06,05,02,50,996.55
2022,06,05,02,51,996.55
2022,06,05,02,52,996.55
2022,06,05,02,53,996.55
2022,06,05,02,54,996.55
2022,06,05,02,55,996.55
2022,06,05,02,56,996.55
2022,06,05,02,57,996.55
2022,06,05,02,58,996.55
2022,06,05,02,59,996.55
2022,06,05,03,00,996.42
2022,06,05,03,01,996.41
2022,06,05,03,02,996.41
2022,06,05,03,03,996.41
2022,06,05,03,04,996.41
2022,06,05,03,05,996.41
2022,06,05,03,06,996.41
2022,06,05,03,07,996.41
2022,06,05,03,08,996.41
2022,06,05,03,09,996.41
2022,06,05,03,10,996.41
2022,06,05,03,11,996.41
2022,06,05,03,12,996.41
2022,06,05,03,13,996.41
2022,06,05,03,14,996.41
2022,06,05,03,15,996.73
2022,06,05,03,16,996.75
2022,06,05,03,17,996.75
2022,06,05,03,18,996.75
2022,06,05,03,19,996.75
2022,06,05,03,20,996.75
2022,06,05,03,21,996.75
2022,06,05,03,22,996.75
2022,06,05,03,23,996.75
2022,06,05,03,24,996.75
2022,06,05,03,25,996.75
2022,06,05,03,26,996.75
2022,06,05,03,27,996.75
2022,06,05,03,28,996.75
2022,06,05,03,29,996.75
2022,06,05,03,30,996.75
2022,06,05,03,31,996.75
2022,06,05,03,32,996.75
2022,06,05,03,33,996.75
2022,06,05,03,34,996.75
2022,06,05,03,35,996.75
2022,06,05,03,36,996.75
2022,06,05,03,37,996.75
2022,06,05,03,38,996.75
2022,06,05,03,39,996.75
2022,06,05,03,40,996.75
2022,06,05,03,41,996.75
2022,06,05,03,42,996.75
2022,06,05,03,43,996.75
2022,06,05,03,44,996.75
2022,06,05,03,45,996.72
2022,06,05,03,46,996.72
2022,06,05,03,47,996.72
2022,06,05,03,48,996.72
2022,06,05,03,49,996.72
2022,06,05,03,50,996.72
2022,06,05,03,51,996.72
2022,06,05,03,52,996.72
2022,06,05,03,53,996.72
2022,06,05,03,54,996.72
2022,06,05,03,55,996.72
2022,06,05,03,56,996.72
2022,06,05,03,57,996.72
2022,06,05,03,58,996.72
2022,06,05,03,59,996.72
2022,06,05,04,00,996.72
2022,06,05,04,01,996.72
2022,06,05,04,02,996.72
2022,06,05,04,03,996.72
2022,06,05,04,04,996.72
2022,06,05,04,05,996.72
2022,06,05,04,06,996.72
2022,06,05,04,07,996.72
2022,06,05,04,08,996.72
2022,06,05,04,09,996.72
2022,06,05,04,10,996.72
2022,06,05,04,11,996.72
2022,06,05,04,12,996.72
2022,06,05,04,13,996.72
2022,06,05,04,14,996.72
2022,06,05,04,15,996.56
2022,06,05,04,16,996.55
2022,06,05,04,17,996.55
2022,06,05,04,18,996.55
2022,06,05,04,19,996.55
2022,06,05,04,20,996.55
2022,06,05,04,21,996.55
2022,06,05,04,22,996.55
2022,06,05,04,23,996.55
2022,06,05,04,24,996.55
2022,06,05,04,25,996.55
2022,06,05,04,26,996.55
2022,06,05,04,27,996.55
2022,06,05,04,28,996.55
2022,06,05,04,29,996.55
2022,06,05,04,30,996.65
2022,06,05,04,31,996.65
2022,06,05,04,32,996.65
2022,06,05,04,33,996.65
2022,06,05,04,34,996.65
2022,06,05,04,35,996.65
2022,06,05,04,36,996.65
2022,06,05,04,37,996.65
2022,06,05,04,38,996.65
2022,06,05,04,39,996.65
2022,06,05,04,40,996.65
2022,06,05,04,41,996.65
2022,06,05,04,42,996.65
2022,06,05,04,43,996.65
2022,06,05,04,44,996.65
2022,06,05,04,45,996.28
2022,06,05,04,46,996.28
2022,06,05,04,47,996.28
2022,06,05,04,48,996.28
2022,06,05,04,49,996.28
2022,06,05,04,50,996.28
2022,06,05,04,51,996.28
2022,06,05,04,52,996.28
2022,06,05,04,53,996.28
2022,06,05,04,54,996.28
2022,06,05,04,55,996.28
2022,06,05,04,56,996.28
2022,06,05,04,57,996.28
2022,06,05,04,58,996.28
2022,06,05,04,59,996.28
2022,06,05,05,00,996.57
2022,06,05,05,01,996.58
2022,06,05,05,02,996.58
2022,06,05,05,03,996.58
2022,06,05,05,04,996.58
2022,06,05,05,05,996.58
2022,06,05,05,06,996.58
2022,06,05,05,07,996.58
2022,06,05,05,08,996.58
2022,06,05,05,09,996.58
2022,06,05,05,10,996.58
2022,06,05,05,11,996.58
2022,06,05,05,12,996.58
2022,06,05,05,13,996.58
2022,06,05,05,14,996.58
2022,06,05,05,15,996.42
2022,06,05,05,16,996.41
2022,06,05,05,17,996.41
2022,06,05,05,18,996.41
2022,06,05,05,19,996.41
2022,06,05,05,20,996.41
2022,06,05,05,21,996.41
2022,06,05,05,22,996.41
2022,06,05,05,23,996.41
2022,06,05,05,24,996.41
2022,06,05,05,25,996.41
2022,06,05,05,26,996.41
2022,06,05,05,27,996.41
2022,06,05,05,28,996.41
2022,06,05,05,29,996.41
2022,06,05,05,30,996.64
2022,06,05,05,31,996.65
2022,06,05,05,32,996.65
2022,06,05,05,33,996.65
2022,06,05,05,34,996.65
2022,06,05,05,35,996.65
2022,06,05,05,36,996.65
2022,06,05,05,37,996.65
2022,06,05,05,38,996.65
2022,06,05,05,39,996.65
2022,06,05,05,40,996.65
2022,06,05,05,41,996.65
2022,06,05,05,42,996.65
2022,06,05,05,43,996.65
2022,06,05,05,44,996.65
2022,06,05,05,45,996.77
2022,06,05,05,46,996.78
2022,06,05,05,47,996.78
2022,06,05,05,48,996.78
2022,06,05,05,49,996.78
2022,06,05,05,50,996.78
2022,06,05,05,51,996.78
2022,06,05,05,52,996.78
2022,06,05,05,53,996.78
2022,06,05,05,54,996.78
2022,06,05,05,55,996.78
2022,06,05,05,56,996.78
2022,06,05,05,57,996.78
2022,06,05,05,58,996.78
2022,06,05,05,59,996.78
2022,06,05,06,00,996.72
2022,06,05,06,01,996.72
2022,06,05,06,02,996.72
2022,06,05,06,03,996.72
2022,06,05,06,04,996.72
2022,06,05,06,05,996.72
2022,06,05,06,06,996.72
2022,06,05,06,07,996.72
2022,06,05,06,08,996.72
2022,06,05,06,09,996.72
2022,06,05,06,10,996.72
2022,06,05,06,11,996.72
2022,06,05,06,12,996.72
2022,06,05,06,13,996.72
2022,06,05,06,14,996.72
2022,06,05,06,15,996.88
2022,06,05,06,16,996.89
2022,06,05,06,17,996.89
2022,06,05,06,18,996.89
2022,06,05,06,19,996.89
2022,06,05,06,20,996.89
2022,06,05,06,21,996.89
2022,06,05,06,22,996.89
2022,06,05,06,23,996.89
2022,06,05,06,24,996.89
2022,06,05,06,25,996.89
2022,06,05,06,26,996.89
2022,06,05,06,27,996.89
2022,06,05,06,28,996.89
2022,06,05,06,29,996.89
2022,06,05,06,30,996.85
2022,06,05,06,31,996.85
2022,06,05,06,32,996.85
2022,06,05,06,33,996.85
2022,06,05,06,34,996.85
2022,06,05,06,35,996.85
2022,06,05,06,36,996.85
2022,06,05,06,37,996.85
2022,06,05,06,38,996.85
2022,06,05,06,39,996.85
2022,06,05,06,40,996.85
2022,06,05,06,41,996.85
2022,06,05,06,42,996.85
2022,06,05,06,43,996.85
2022,06,05,06,44,996.85
2022,06,05,06,45,996.85
2022,06,05,06,46,996.85
2022,06,05,06,47,996.85
2022,06,05,06,48,996.85
2022,06,05,06,49,996.85
2022,06,05,06,50,996.85
2022,06,05,06,51,996.85
2022,06,05,06,52,996.85
2022,06,05,06,53,996.85
2022,06,05,06,54,996.85
2022,06,05,06,55,996.85
2022,06,05,06,56,996.85
2022,06,05,06,57,996.85
2022,06,05,06,58,996.85
2022,06,05,06,59,996.85
2022,06,05,07,00,996.78
2022,06,05,07,01,996.78
2022,06,05,07,02,996.78
2022,06,05,07,03,996.78
2022,06,05,07,04,996.78
2022,06,05,07,05,996.78
2022,06,05,07,06,996.78
2022,06,05,07,07,996.78
2022,06,05,07,08,996.78
2022,06,05,07,09,996.78
2022,06,05,07,10,996.78
2022,06,05,07,11,996.78
2022,06,05,07,12,996.78
2022,06,05,07,13,996.78
2022,06,05,07,14,996.78
2022,06,05,07,15,996.82
2022,06,05,07,16,996.82
2022,06,05,07,17,996.82
2022,06,05,07,18,996.82
2022,06,05,07,19,996.82
2022,06,05,07,20,996.82
2022,06,05,07,21,996.82
2022,06,05,07,22,996.82
2022,06,05,07,23,996.82
2022,06,05,07,24,996.82
2022,06,05,07,25,996.82
2022,06,05,07,26,996.82
2022,06,05,07,27,996.82
2022,06,05,07,28,996.82
2022,06,05,07,29,996.82
2022,06,05,07,30,996.98
2022,06,05,07,31,996.99
2022,06,05,07,32,996.99
2022,06,05,07,33,996.99
2022,06,05,07,34,996.99
2022,06,05,07,35,996.99
2022,06,05,07,36,996.99
2022,06,05,07,37,996.99
2022,06,05,07,38,996.99
2022,06,05,07,39,996.99
2022,06,05,07,40,996.99
2022,06,05,07,41,996.99
2022,06,05,07,42,996.99
2022,06,05,07,43,996.99
2022,06,05,07,44,996.99
2022,06,05,07,45,996.86
2022,06,05,07,46,996.85
2022,06,05,07,47,996.85
2022,06,05,07,48,996.85
2022,06,05,07,49,996.85
2022,06,05,07,50,996.85
2022,06,05,07,51,996.85
2022,06,05,07,52,996.85
2022,06,05,07,53,996.85
2022,06,05,07,54,996.85
2022,06,05,07,55,996.85
2022,06,05,07,56,996.85
2022,06,05,07,57,996.85
2022,06,05,07,58,996.85
2022,06,05,07,59,996.85
2022,06,05,08,00,997.16
2022,06,05,08,01,997.19
2022,06,05,08,02,997.19
2022,06,05,08,03,997.19
2022,06,05,08,04,997.19
2022,06,05,08,05,997.19
2022,06,05,08,06,997.19
2022,06,05,08,07,997.19
2022,06,05,08,08,997.19
2022,06,05,08,09,997.19
2022,06,05,08,10,997.19
2022,06,05,08,11,997.19
2022,06,05,08,12,997.19
2022,06,05,08,13,997.19
2022,06,05,08,14,997.19
2022,06,05,08,15,997.12
2022,06,05,08,16,997.12
2022,06,05,08,17,997.12
2022,06,05,08,18,997.12
2022,06,05,08,19,997.12
2022,06,05,08,20,997.12
2022,06,05,08,21,997.12
2022,06,05,08,22,997.12
2022,06,05,08,23,997.12
2022,06,05,08,24,997.12
2022,06,05,08,25,997.12
2022,06,05,08,26,997.12
2022,06,05,08,27,997.12
2022,06,05,08,28,997.12
2022,06,05,08,29,997.12
2022,06,05,08,30,997.21
2022,06,05,08,31,997.22
2022,06,05,08,32,997.22
2022,06,05,08,33,997.22
2022,06,05,08,34,997.22
2022,06,05,08,35,997.22
2022,06,05,08,36,997.22
2022,06,05,08,37,997.22
2022,06,05,08,38,997.22
2022,06,05,08,39,997.22
2022,06,05,08,40,997.22
2022,06,05,08,41,997.22
2022,06,05,08,42,997.22
2022,06,05,08,43,997.22
2022,06,05,08,44,997.22
2022,06,05,08,45,997.32
2022,06,05,08,46,997.33
2022,06,05,08,47,997.33
2022,06,05,08,48,997.33
2022,06,05,08,49,997.33
2022,06,05,08,50,997.33
2022,06,05,08,51,997.33
2022,06,05,08,52,997.33
2022,06,05,08,53,997.33
2022,06,05,08,54,997.33
2022,06,05,08,55,997.33
2022,06,05,08,56,997.33
2022,06,05,08,57,997.33
2022,06,05,08,58,997.33
2022,06,05,08,59,997.33
2022,06,05,09,00,997.36
2022,06,05,09,01,997.36
2022,06,05,09,02,997.36
2022,06,05,09,03,997.36
2022,06,05,09,04,997.36
2022,06,05,09,05,997.36
2022,06,05,09,06,997.36
2022,06,05,09,07,997.36
2022,06,05,09,08,997.36
2022,06,05,09,09,997.36
2022,06,05,09,10,997.36
2022,06,05,09,11,997.36
2022,06,05,09,12,997.36
2022,06,05,09,13,997.36
2022,06,05,09,14,997.36
2022,06,05,09,15,997.49
2022,06,05,09,16,997.50
2022,06,05,09,17,997.50
2022,06,05,09,18,997.50
2022,06,05,09,19,997.50
2022,06,05,09,20,997.50
2022,06,05,09,21,997.50
2022,06,05,09,22,997.50
2022,06,05,09,23,997.50
2022,06,05,09,24,997.50
2022,06,05,09,25,997.50
2022,06,05,09,26,997.50
2022,06,05,09,27,997.50
2022,06,05,09,28,997.50
2022,06,05,09,29,997.50
2022,06,05,09,30,997.72
2022,06,05,09,31,997.73
2022,06,05,09,32,997.73
2022,06,05,09,33,997.73
2022,06,05,09,34,997.73
2022,06,05,09,35,997.73
2022,06,05,09,36,997.73
2022,06,05,09,37,997.73
2022,06,05,09,38,997.73
2022,06,05,09,39,997.73
2022,06,05,09,40,997.73
2022,06,05,09,41,997.73
2022,06,05,09,42,997.73
2022,06,05,09,43,997.73
2022,06,05,09,44,997.73
2022,06,05,09,45,997.86
2022,06,05,09,46,997.87
2022,06,05,09,47,997.87
2022,06,05,09,48,997.87
2022,06,05,09,49,997.87
2022,06,05,09,50,997.87
2022,06,05,09,51,997.87
2022,06,05,09,52,997.87
2022,06,05,09,53,997.87
2022,06,05,09,54,997.87
2022,06,05,09,55,997.87
2022,06,05,09,56,997.87
2022,06,05,09,57,997.87
2022,06,05,09,58,997.87
2022,06,05,09,59,997.87
2022,06,05,10,00,997.97
2022,06,05,10,01,997.97
2022,06,05,10,02,997.97
2022,06,05,10,03,997.97
2022,06,05,10,04,997.97
2022,06,05,10,05,997.97
2022,06,05,10,06,997.97
2022,06,05,10,07,997.97
2022,06,05,10,08,997.97
2022,06,05,10,09,997.97
2022,06,05,10,10,997.97
2022,06,05,10,11,997.97
2022,06,05,10,12,997.97
2022,06,05,10,13,997.97
2022,06,05,10,14,997.97
2022,06,05,10,15,998.32
2022,06,05,10,16,998.34
2022,06,05,10,17,998.34
2022,06,05,10,18,998.34
2022,06,05,10,19,998.34
2022,06,05,10,20,998.34
2022,06,05,10,21,998.34
2022,06,05,10,22,998.34
2022,06,05,10,23,998.34
2022,06,05,10,24,998.34
2022,06,05,10,25,998.34
2022,06,05,10,26,998.34
2022,06,05,10,27,998.34
2022,06,05,10,28,998.34
2022,06,05,10,29,998.34
2022,06,05,10,30,998.40
2022,06,05,10,31,998.41
2022,06,05,10,32,998.41
2022,06,05,10,33,998.41
2022,06,05,10,34,998.41
2022,06,05,10,35,998.41
2022,06,05,10,36,998.41
2022,06,05,10,37,998.41
2022,06,05,10,38,998.41
2022,06,05,10,39,998.41
2022,06,05,10,40,998.41
2022,06,05,10,41,998.41
2022,06,05,10,42,998.41
2022,06,05,10,43,998.41
2022,06,05,10,44,998.41
2022,06,05,10,45,998.80
2022,06,05,10,46,998.82
2022,06,05,10,47,998.82
2022,06,05,10,48,998.82
2022,06,05,10,49,998.82
2022,06,05,10,50,998.82
2022,06,05,10,51,998.82
2022,06,05,10,52,998.82
2022,06,05,10,53,998.82
2022,06,05,10,54,998.82
2022,06,05,10,55,998.82
2022,06,05,10,56,998.82
2022,06,05,10,57,998.82
2022,06,05,10,58,998.82
2022,06,05,10,59,998.82
2022,06,05,11,00,998.91
2022,06,05,11,01,998.92
2022,06,05,11,02,998.92
2022,06,05,11,03,998.92
2022,06,05,11,04,998.92
2022,06,05,11,05,998.92
2022,06,05,11,06,998.92
2022,06,05,11,07,998.92
2022,06,05,11,08,998.92
2022,06,05,11,09,998.92
2022,06,05,11,10,998.92
2022,06,05,11,11,998.92
2022,06,05,11,12,998.92
2022,06,05,11,13,998.92
2022,06,05,11,14,998.92
2022,06,05,11,15,999.18
2022,06,05,11,16,999.19
2022,06,05,11,17,999.19
2022,06,05,11,18,999.19
2022,06,05,11,19,999.19
2022,06,05,11,20,999.19
2022,06,05,11,21,999.19
2022,06,05,11,22,999.19
2022,06,05,11,23,999.19
2022,06,05,11,24,999.19
2022,06,05,11,25,999.19
2022,06,05,11,26,999.19
2022,06,05,11,27,999.19
2022,06,05,11,28,999.19
2022,06,05,11,29,999.19
2022,06,05,11,30,999.43
2022,06,05,11,31,999.46
2022,06,05,11,32,999.46
2022,06,05,11,33,999.46
2022,06,05,11,34,999.46
2022,06,05,11,35,999.46
2022,06,05,11,36,999.46
2022,06,05,11,37,999.46
2022,06,05,11,38,999.46
2022,06,05,11,39,999.46
2022,06,05,11,40,999.46
2022,06,05,11,41,999.46
2022,06,05,11,42,999.46
2022,06,05,11,43,999.46
2022,06,05,11,44,999.46
2022,06,05,11,45,999.77
2022,06,05,11,46,999.80
2022,06,05,11,47,999.80
2022,06,05,11,48,999.80
2022,06,05,11,49,999.80
2022,06,05,11,50,999.80
2022,06,05,11,51,999.80
2022,06,05,11,52,999.80
2022,06,05,11,53,999.80
2022,06,05,11,54,999.80
2022,06,05,11,55,999.80
2022,06,05,11,56,999.80
2022,06,05,11,57,999.80
2022,06,05,11,58,999.80
2022,06,05,11,59,999.80
2022,06,05,12,00,999.95
2022,06,05,12,01,999.97
2022,06,05,12,02,999.97
2022,06,05,12,03,999.97
2022,06,05,12,04,999.97
2022,06,05,12,05,999.97
2022,06,05,12,06,999.97
2022,06,05,12,07,999.97
2022,06,05,12,08,999.97
2022,06,05,12,09,999.97
2022,06,05,12,10,999.97
2022,06,05,12,11,999.97
2022,06,05,12,12,999.97
2022,06,05,12,13,999.97
2022,06,05,12,14,999.97
2022,06,05,12,15,999.97
2022,06,05,12,16,999.97
2022,06,05,12,17,999.97
2022,06,05,12,18,999.97
2022,06,05,12,19,999.97
2022,06,05,12,20,999.97
2022,06,05,12,21,999.97
2022,06,05,12,22,999.97
2022,06,05,12,23,999.97
2022,06,05,12,24,999.97
2022,06,05,12,25,999.97
2022,06,05,12,26,999.97
2022,06,05,12,27,999.97
2022,06,05,12,28,999.97
2022,06,05,12,29,999.97
2022,06,05,12,30,1000.18
2022,06,05,12,31,1000.20
2022,06,05,12,32,1000.20
2022,06,05,12,33,1000.20
2022,06,05,12,34,1000.20
2022,06,05,12,35,1000.20
2022,06,05,12,36,1000.20
2022,06,05,12,37,1000.20
2022,06,05,12,38,1000.20
2022,06,05,12,39,1000.20
2022,06,05,12,40,1000.20
2022,06,05,12,41,1000.20
2022,06,05,12,42,1000.20
2022,06,05,12,43,1000.20
2022,06,05,12,44,1000.20
2022,06,05,12,45,1000.47
2022,06,05,12,46,1000.48
2022,06,05,12,47,1000.48
2022,06,05,12,48,1000.48
2022,06,05,12,49,1000.48
2022,06,05,12,50,1000.48
2022,06,05,12,51,1000.48
2022,06,05,12,52,1000.48
2022,06,05,12,53,1000.48
2022,06,05,12,54,1000.48
2022,06,05,12,55,1000.48
2022,06,05,12,56,1000.48
2022,06,05,12,57,1000.48
2022,06,05,12,58,1000.48
2022,06,05,12,59,1000.48
2022,06,05,13,00,1000.51
2022,06,05,13,01,1000.51
2022,06,05,13,02,1000.51
2022,06,05,13,03,1000.51
2022,06,05,13,04,1000.51
2022,06,05,13,05,1000.51
2022,06,05,13,06,1000.51
2022,06,05,13,07,1000.51
2022,06,05,13,08,1000.51
2022,06,05,13,09,1000.51
2022,06,05,13,10,1000.51
2022,06,05,13,11,1000.51
2022,06,05,13,12,1000.51
2022,06,05,13,13,1000.51
2022,06,05,13,14,1000.51
2022,06,05,13,15,1000.77
2022,06,05,13,16,1000.78
2022,06,05,13,17,1000.78
2022,06,05,13,18,1000.78
2022,06,05,13,19,1000.78
2022,06,05,13,20,1000.78
2022,06,05,13,21,1000.78
2022,06,05,13,22,1000.78
2022,06,05,13,23,1000.78
2022,06,05,13,24,1000.78
2022,06,05,13,25,1000.78
2022,06,05,13,26,1000.78
2022,06,05,13,27,1000.78
2022,06,05,13,28,1000.78
2022,06,05,13,29,1000.78
2022,06,05,13,30,1000.97
2022,06,05,13,31,1000.98
2022,06,05,13,32,1000.98
2022,06,05,13,33,1000.98
2022,06,05,13,34,1000.98
2022,06,05,13,35,1000.98
2022,06,05,13,36,1000.98
2022,06,05,13,37,1000.98
2022,06,05,13,38,1000.98
2022,06,05,13,39,1000.98
2022,06,05,13,40,1000.98
2022,06,05,13,41,1000.98
2022,06,05,13,42,1000.98
2022,06,05,13,43,1000.98
2022,06,05,13,44,1000.98
2022,06,05,13,45,1001.25
2022,06,05,13,46,1001.25
2022,06,05,13,47,1001.25
2022,06,05,13,48,1001.25
2022,06,05,13,49,1001.25
2022,06,05,13,50,1001.25
2022,06,05,13,51,1001.25
2022,06,05,13,52,1001.25
2022,06,05,13,53,1001.25
2022,06,05,13,54,1001.25
2022,06,05,13,55,1001.25
2022,06,05,13,56,1001.25
2022,06,05,13,57,1001.25
2022,06,05,13,58,1001.25
2022,06,05,13,59,1001.25
2022,06,05,14,00,1001.51
2022,06,05,14,01,1001.52
2022,06,05,14,02,1001.52
2022,06,05,14,03,1001.52
2022,06,05,14,04,1001.52
2022,06,05,14,05,1001.52
2022,06,05,14,06,1001.52
2022,06,05,14,07,1001.52
2022,06,05,14,08,1001.52
2022,06,05,14,09,1001.52
2022,06,05,14,10,1001.52
2022,06,05,14,11,1001.52
2022,06,05,14,12,1001.52
2022,06,05,14,13,1001.52
2022,06,05,14,14,1001.52
2022,06,05,14,15,1002.03
2022,06,05,14,16,1002.03
2022,06,05,14,17,1002.03
2022,06,05,14,18,1002.03
2022,06,05,14,19,1002.03
2022,06,05,14,20,1002.03
2022,06,05,14,21,1002.03
2022,06,05,14,22,1002.03
2022,06,05,14,23,1002.03
2022,06,05,14,24,1002.03
2022,06,05,14,25,1002.03
2022,06,05,14,26,1002.03
2022,06,05,14,27,1002.03
2022,06,05,14,28,1002.03
2022,06,05,14,29,1002.03
2022,06,05,14,30,1002.24
2022,06,05,14,31,1002.24
2022,06,05,14,32,1002.24
2022,06,05,14,33,1002.24
2022,06,05,14,34,1002.24
2022,06,05,14,35,1002.24
2022,06,05,14,36,1002.24
2022,06,05,14,37,1002.24
2022,06,05,14,38,1002.24
2022,06,05,14,39,1002.24
2022,06,05,14,40,1002.24
2022,06,05,14,41,1002.24
2022,06,05,14,42,1002.24
2022,06,05,14,43,1002.24
2022,06,05,14,44,1002.24
2022,06,05,14,45,1002.46
2022,06,05,14,46,1002.47
2022,06,05,14,47,1002.47
2022,06,05,14,48,1002.47
2022,06,05,14,49,1002.47
2022,06,05,14,50,1002.47
2022,06,05,14,51,1002.47
2022,06,05,14,52,1002.47
2022,06,05,14,53,1002.47
2022,06,05,14,54,1002.47
2022,06,05,14,55,1002.47
2022,06,05,14,56,1002.47
2022,06,05,14,57,1002.47
2022,06,05,14,58,1002.47
2022,06,05,14,59,1002.47
2022,06,05,15,00,1002.57
2022,06,05,15,01,1002.57
2022,06,05,15,02,1002.57
2022,06,05,15,03,1002.57
2022,06,05,15,04,1002.57
2022,06,05,15,05,1002.57
2022,06,05,15,06,1002.57
2022,06,05,15,07,1002.57
2022,06,05,15,08,1002.57
2022,06,05,15,09,1002.57
2022,06,05,15,10,1002.57
2022,06,05,15,11,1002.57
2022,06,05,15,12,1002.57
2022,06,05,15,13,1002.57
2022,06,05,15,14,1002.57
2022,06,05,15,15,1002.68
2022,06,05,15,16,1002.68
2022,06,05,15,17,1002.68
2022,06,05,15,18,1002.68
2022,06,05,15,19,1002.68
2022,06,05,15,20,1002.68
2022,06,05,15,21,1002.68
2022,06,05,15,22,1002.68
2022,06,05,15,23,1002.68
2022,06,05,15,24,1002.68
2022,06,05,15,25,1002.68
2022,06,05,15,26,1002.68
2022,06,05,15,27,1002.68
2022,06,05,15,28,1002.68
2022,06,05,15,29,1002.68
2022,06,05,15,30,1002.98
2022,06,05,15,31,1002.98
2022,06,05,15,32,1002.98
2022,06,05,15,33,1002.98
2022,06,05,15,34,1002.98
2022,06,05,15,35,1002.98
2022,06,05,15,36,1002.98
2022,06,05,15,37,1002.98
2022,06,05,15,38,1002.98
2022,06,05,15,39,1002.98
2022,06,05,15,40,1002.98
2022,06,05,15,41,1002.98
2022,06,05,15,42,1002.98
2022,06,05,15,43,1002.98
2022,06,05,15,44,1002.98
2022,06,05,15,45,1003.05
2022,06,05,15,46,1003.05
2022,06,05,15,47,1003.05
2022,06,05,15,48,1003.05
2022,06,05,15,49,1003.05
2022,06,05,15,50,1003.05
2022,06,05,15,51,1003.05
2022,06,05,15,52,1003.05
2022,06,05,15,53,1003.05
2022,06,05,15,54,1003.05
2022,06,05,15,55,1003.05
2022,06,05,15,56,1003.05
2022,06,05,15,57,1003.05
2022,06,05,15,58,1003.05
2022,06,05,15,59,1003.05
2022,06,05,16,00,1003.12
2022,06,05,16,01,1003.12
2022,06,05,16,02,1003.12
2022,06,05,16,03,1003.12
2022,06,05,16,04,1003.12
2022,06,05,16,05,1003.12
2022,06,05,16,06,1003.12
2022,06,05,16,07,1003.12
2022,06,05,16,08,1003.12
2022,06,05,16,09,1003.12
2022,06,05,16,10,1003.12
2022,06,05,16,11,1003.12
2022,06,05,16,12,1003.12
2022,06,05,16,13,1003.12
2022,06,05,16,14,1003.12
2022,06,05,16,15,1003.60
2022,06,05,16,16,1003.62
2022,06,05,16,17,1003.62
2022,06,05,16,18,1003.62
2022,06,05,16,19,1003.62
2022,06,05,16,20,1003.62
2022,06,05,16,21,1003.62
2022,06,05,16,22,1003.62
2022,06,05,16,23,1003.62
2022,06,05,16,24,1003.62
2022,06,05,16,25,1003.62
2022,06,05,16,26,1003.62